Wind_Speed
21 21 23 24 25 26 26 27 27 28 28 28 29 30 31 31 31 32 32 32 33 33 33 33 33 34 35 35 36 36 36 36 36 36 37 38 39 39
20 21 22 24 25 25 26 27 27 28 28 29 29 30 31 31 31 32 32 33 33 33 32 32 33 34 35 36 37 37 37 38 37 37 38 38 40 42
20 22 22 23 24 25 26 26 27 28 29 29 30 31 31 31 32 32 33 32 33 33 33 33 34 35 36 36 37 38 38 39 39 39 39 40 40 41
20 21 22 23 24 25 25 26 27 28 29 30 30 31 31 32 32 33 33 32 32 32 32 33 33 34 35 35 36 37 38 39 40 41 41 41 41 42
21 22 23 23 23 25 25 25 27 28 29 29 30 30 31 32 32 32 32 31 31 31 31 32 33 34 35 35 36 37 38 39 40 41 42 43 43 43
20 21 23 23 24 24 25 26 27 28 28 28 28 28 29 30 31 30 30 30 30 31 32 33 34 34 34 35 35 36 37 38 40 41 42 43 44 45
19 20 21 22 23 25 25 26 27 28 28 28 27 27 28 28 28 29 29 29 30 31 32 32 33 33 34 35 36 37 38 39 41 42 43 44 44 44
19 20 21 22 23 24 25 27 28 28 28 28 28 28 28 28 27 28 28 28 29 30 31 32 32 33 34 35 36 37 38 39 40 41 43 43 44 45
18 19 21 23 24 25 26 27 28 28 28 28 28 28 28 28 27 27 27 27 29 29 30 31 32 32 33 34 35 36 37 38 39 40 42 43 44 45
18 20 21 23 24 25 26 27 28 28 28 28 28 28 27 27 28 28 27 27 27 28 29 29 29 30 32 33 34 34 35 36 37 38 40 42 43 44
18 19 21 24 25 26 26 27 27 27 28 28 28 28 27 27 28 28 27 26 26 26 27 27 27 28 30 31 32 32 33 34 35 36 37 38 40 42
19 20 22 24 25 26 26 26 27 27 27 27 27 27 27 27 27 26 26 26 25 24 24 25 26 26 27 28 29 30 31 32 32 34 35 36 37 39
20 21 22 24 25 25 26 26 26 26 26 26 26 27 26 26 26 25 25 25 24 23 24 24 24 24 25 26 27 28 29 29 30 30 31 33 34 36
20 21 23 24 25 25 26 26 26 26 26 26 26 26 25 25 25 24 24 24 24 23 23 23 23 23 24 25 25 26 27 27 27 28 29 30 32 34
20 21 23 24 25 25 25 25 26 26 26 26 26 25 24 24 24 23 23 23 24 23 23 24 23 23 23 24 24 24 24 25 25 25 26 27 28 29
20 22 23 24 25 25 24 25 26 26 27 26 25 24 24 23 23 23 23 23 22 22 22 23 22 22 23 23 23 22 22 22 23 23 23 24 25 26
22 23 24 25 25 24 24 25 26 26 26 26 25 24 24 23 23 23 23 22 22 21 21 21 22 22 22 22 21 21 21 21 21 22 21 21 22 24
23 24 24 25 25 24 24 25 26 26 26 26 25 24 24 23 23 23 22 22 22 21 21 21 21 21 21 20 20 21 21 20 20 19 20 20 21 21
24 24 25 25 25 24 25 25 26 25 26 26 25 24 24 24 23 23 23 22 22 22 22 21 21 20 19 19 19 19 19 19 18 18 18 19 19 20
24 24 25 25 25 24 24 25 25 25 25 25 25 24 24 24 24 23 23 23 23 22 22 21 21 20 20 19 18 18 18 18 17 17 17 17 17 18
24 24 24 25 25 24 23 24 25 24 24 24 24 24 24 24 24 23 24 24 24 23 22 22 21 21 20 19 18 17 17 17 16 16 16 16 16 16
24 24 24 24 24 24 24 24 24 24 24 24 24 23 24 24 24 24 24 25 24 24 23 23 22 21 20 19 18 17 16 16 15 14 14 14 15 14
23 24 24 24 24 24 24 24 25 25 24 24 23 23 24 24 24 24 24 25 24 24 23 22 21 20 19 18 17 16 15 14 13 13 13 12 12 12
Wind_Direction
291 294 293 291 292 292 293 292 291 290 290 289 288 288 287 285 285 284 282 280 278 276 273 269 266 264 262 261 259 257 257 256 254 254 253 252 250 249
294 296 296 294 294 295 295 295 293 291 289 289 289 289 289 288 287 286 285 282 279 276 273 270 267 265 263 261 259 257 257 256 256 255 254 253 252 251
293 296 298 299 298 298 297 296 293 292 291 291 289 289 289 289 289 287 286 283 279 276 273 271 269 267 265 263 261 258 258 257 256 256 256 255 253 252
296 300 302 302 301 301 301 299 297 295 295 293 291 291 290 290 288 288 288 284 279 276 273 272 271 269 268 266 263 261 259 258 256 255 255 255 254 252
298 300 302 304 305 305 303 303 302 300 299 297 296 295 294 293 291 291 288 284 281 278 276 274 273 271 269 267 265 262 260 259 257 256 255 255 254 253
300 302 303 305 306 308 308 307 306 305 304 302 302 301 298 296 294 292 289 284 282 279 278 276 274 272 270 268 266 263 261 260 258 257 256 255 254 253
304 306 308 310 310 311 311 310 309 308 306 306 306 304 302 299 297 294 290 287 284 282 279 277 275 273 271 269 266 264 263 262 260 259 257 255 254 253
311 313 315 316 315 313 313 312 311 310 310 308 306 306 305 303 301 298 296 291 287 284 281 278 277 275 273 271 269 267 265 264 263 260 258 256 255 253
316 318 319 319 318 317 316 316 315 313 311 310 309 308 307 306 303 301 299 296 293 289 286 283 279 278 276 273 271 269 268 266 264 262 259 257 256 254
321 320 321 323 323 321 321 319 318 317 315 313 313 311 309 307 306 304 301 299 297 293 289 286 282 280 278 277 274 271 269 268 265 264 262 259 257 255
326 326 326 327 326 325 323 322 321 320 317 316 316 314 311 308 307 306 305 302 299 297 293 290 286 283 281 279 277 275 273 272 270 266 264 260 257 255
330 328 328 329 329 329 328 326 325 323 320 318 317 316 314 311 309 308 307 305 302 300 297 294 291 287 283 282 281 279 277 275 272 268 264 260 257 255
331 330 329 330 330 331 330 329 328 326 325 323 321 319 317 315 312 310 309 307 305 303 302 299 297 292 288 286 284 283 281 279 275 271 265 260 257 255
332 331 331 331 331 331 332 332 331 330 329 328 325 323 322 320 317 314 312 311 309 307 307 305 301 296 294 291 288 285 283 281 278 273 268 263 258 255
334 334 333 332 331 332 333 333 333 333 332 331 329 327 325 324 323 319 316 314 312 310 310 308 304 301 298 296 293 289 285 282 279 277 271 267 263 258
334 333 332 333 333 334 335 336 336 336 335 334 333 331 330 329 328 326 323 320 316 313 312 310 307 304 302 300 296 293 291 288 283 282 276 271 265 260
334 333 333 334 334 334 335 336 337 338 338 337 336 335 334 333 331 331 329 327 323 318 316 314 311 308 306 303 299 295 293 292 287 284 280 274 268 262
335 335 334 335 336 336 336 337 339 341 341 340 340 340 340 338 337 336 335 334 330 324 322 319 315 312 309 304 300 296 294 292 290 285 279 273 270 265
336 336 337 337 336 336 337 338 340 341 343 343 343 343 344 343 342 342 340 337 335 332 329 327 323 318 313 307 302 299 296 292 289 284 279 275 270 266
338 338 337 337 336 336 338 340 342 343 343 344 345 345 344 344 344 343 341 340 338 336 335 334 331 327 321 316 311 305 297 294 293 287 281 278 273 268
339 339 338 338 338 337 338 341 342 344 344 344 345 346 346 347 347 346 344 343 341 340 337 334 331 329 326 321 315 309 302 296 295 293 286 278 273 268
339 340 340 339 339 339 339 339 341 342 343 345 346 346 346 347 347 348 347 345 344 343 340 338 334 331 329 327 323 315 308 302 297 291 286 280 274 269
337 339 339 339 338 339 339 339 340 341 343 344 344 345 345 345 346 346 345 345 345 344 343 342 339 336 334 333 331 326 318 311 303 296 287 279 272 265
Height
5774 5772 5770 5768 5765 5762 5760 5757 5755 5753 5750 5747 5744 5741 5738 5736 5734 5733 5732 5730 5729 5727 5726 5726 5725 5726 5726 5727 5728 5729 5730 5732 5733 5734 5736 5738 5741 5744
5768 5766 5764 5761 5759 5755 5752 5749 5747 5744 5742 5739 5736 5733 5729 5727 5725 5723 5721 5719 5718 5716 5715 5715 5715 5715 5715 5716 5717 5718 5719 5721 5722 5724 5725 5727 5730 5733
5763 5760 5758 5755 5752 5748 5745 5742 5738 5735 5732 5730 5727 5724 5721 5718 5715 5713 5710 5708 5706 5705 5704 5704 5704 5704 5704 5704 5705 5706 5707 5709 5710 5712 5714 5716 5719 5721
5757 5754 5752 5749 5745 5742 5738 5734 5731 5727 5724 5721 5717 5714 5711 5708 5705 5702 5699 5697 5695 5694 5693 5693 5692 5692 5692 5693 5694 5694 5695 5697 5698 5700 5703 5705 5707 5709
5751 5749 5746 5743 5739 5735 5731 5727 5723 5719 5715 5711 5708 5704 5701 5698 5695 5692 5689 5686 5684 5683 5682 5681 5681 5681 5681 5681 5681 5682 5683 5685 5687 5688 5690 5692 5694 5697
5746 5743 5740 5737 5733 5729 5725 5720 5715 5711 5707 5703 5699 5695 5692 5688 5684 5682 5679 5676 5674 5673 5671 5670 5670 5669 5669 5669 5670 5670 5671 5672 5673 5675 5677 5679 5681 5683
5741 5737 5734 5730 5726 5722 5718 5713 5708 5704 5699 5695 5691 5687 5683 5679 5675 5672 5669 5667 5664 5662 5661 5660 5659 5658 5658 5657 5657 5658 5658 5659 5660 5662 5663 5665 5668 5670
5735 5732 5728 5724 5720 5716 5711 5706 5701 5696 5692 5687 5683 5679 5675 5671 5667 5663 5660 5657 5655 5653 5650 5649 5648 5647 5646 5646 5645 5645 5646 5646 5647 5648 5650 5652 5654 5656
5730 5727 5723 5719 5714 5709 5705 5700 5694 5689 5684 5680 5675 5671 5667 5663 5659 5655 5651 5648 5645 5643 5640 5639 5637 5636 5635 5634 5633 5633 5633 5633 5634 5634 5636 5637 5639 5642
5726 5722 5718 5713 5708 5703 5699 5693 5688 5682 5678 5673 5668 5663 5659 5654 5651 5647 5643 5640 5636 5633 5631 5629 5628 5626 5624 5623 5621 5621 5621 5620 5621 5621 5622 5623 5625 5627
5721 5718 5713 5709 5704 5698 5693 5688 5682 5676 5671 5666 5661 5656 5652 5647 5643 5639 5635 5631 5628 5625 5622 5620 5618 5616 5614 5612 5611 5609 5609 5609 5608 5609 5609 5610 5611 5613
5717 5713 5709 5704 5699 5693 5688 5682 5676 5671 5665 5659 5654 5649 5645 5640 5636 5631 5627 5624 5620 5618 5614 5612 5609 5607 5605 5603 5601 5599 5598 5597 5596 5596 5596 5597 5598 5600
5713 5709 5705 5700 5694 5688 5683 5677 5671 5665 5659 5654 5648 5643 5638 5633 5629 5625 5621 5617 5613 5610 5607 5604 5601 5598 5596 5595 5592 5590 5588 5587 5586 5585 5585 5585 5587 5588
5710 5705 5700 5695 5690 5684 5679 5673 5667 5661 5654 5648 5643 5637 5632 5627 5622 5618 5614 5610 5606 5603 5600 5596 5593 5591 5588 5586 5584 5582 5580 5578 5576 5575 5574 5574 5575 5577
5706 5702 5697 5692 5686 5680 5674 5669 5663 5656 5650 5643 5637 5632 5627 5622 5617 5612 5608 5604 5600 5596 5593 5590 5587 5584 5581 5578 5576 5574 5572 5570 5568 5567 5565 5565 5565 5567
5702 5698 5693 5687 5682 5676 5670 5664 5658 5652 5645 5639 5633 5627 5622 5617 5612 5607 5603 5599 5595 5591 5587 5584 5580 5577 5574 5572 5569 5567 5565 5563 5561 5559 5558 5557 5557 5558
5698 5694 5688 5683 5677 5672 5666 5660 5654 5647 5641 5635 5629 5623 5618 5613 5608 5603 5598 5594 5589 5585 5582 5578 5574 5571 5568 5566 5563 5560 5558 5556 5554 5552 5551 5550 5550 5550
5695 5689 5684 5679 5673 5668 5662 5656 5650 5644 5638 5632 5626 5620 5615 5609 5604 5599 5594 5590 5585 5581 5577 5573 5569 5566 5563 5560 5557 5554 5552 5549 5547 5546 5544 5544 5544 5543
5691 5686 5680 5675 5670 5664 5658 5652 5646 5641 5635 5629 5623 5618 5612 5607 5601 5596 5591 5587 5582 5577 5572 5568 5564 5561 5557 5554 5551 5548 5545 5543 5541 5539 5538 5537 5537 5537
5688 5682 5677 5672 5666 5661 5655 5649 5644 5638 5632 5627 5621 5615 5610 5604 5599 5594 5588 5583 5578 5574 5569 5564 5560 5556 5552 5549 5545 5542 5539 5537 5535 5533 5532 5531 5531 5530
5684 5679 5674 5668 5663 5658 5652 5647 5641 5635 5630 5624 5619 5613 5608 5602 5597 5591 5586 5581 5575 5570 5565 5561 5556 5551 5547 5543 5540 5537 5534 5531 5529 5528 5526 5526 5525 5525
5681 5676 5671 5665 5660 5655 5649 5644 5638 5633 5627 5622 5616 5611 5606 5600 5595 5589 5584 5578 5573 5567 5562 5557 5552 5547 5543 5538 5535 5531 5529 5526 5524 5523 5521 5521 5520 5520
5678 5673 5668 5663 5657 5652 5647 5641 5636 5630 5625 5620 5614 5609 5603 5598 5593 5587 5582 5576 5570 5565 5559 5554 5549 5544 5539 5535 5531 5527 5524 5522 5520 5519 5518 5517 5516 5516